Location: Rancho Santa Fe Post Office
(33.0184°N, 117.2026°W)
Time: 01:22:31
(UTC+00:00)

Cosmos 540 Rocket - Pass Details

Date: 10 September 2024
Orbit: 737 x 749 km, 74.1° (Epoch: 06 October)

Event Time Altitude Azimuth Distance (km) Brightness Sun altitude
Rises 12:27:45 0° 338° (NNW) 3,180 6.6 -13.6°
Reaches altitude 10° 12:30:08 10° 334° (NNW) 2,255 5.8 -13.1°
Maximum altitude 12:35:07 55° 257° (WSW) 888 3.5 -12.1°
Drops below altitude 10° 12:40:05 10° 180° (S) 2,250 5.8 -11.1°
Sets 12:42:28 0° 176° (S) 3,172 6.6 -10.6°
